Погода Янги-Юган

Погода Янги-Юган : погода сейчас, прогноз погоды и архив. Всё, что Вы хотите узнать о погоде Янги-Юган!

Хотите узнать прогноз погоды Янги-Юган? Тогда Вам сюда: Погода Янги-Юган

Поиск расширенной информации на нашем сайте:

Другие новости

Новости СМИ2

Главная страница сайта

Новости сайта

03.07.2017

Напоминаем, что на нашем специализированном сайте Метеоцентр.Азия вы можете получить высокодетализированные автоматические прогнозы погоды по пунктам России, СНГ и мира в авиационном формате (включающие направление и скорость ветра, видимость, явления погоды, количество и форму облачности, нижнюю и верхнюю границу облачности).


Погода Янги-Юган - сегодня

Время (UTC), дата Ветер
(°,м/с) 
Видим.   Явления Облачность Т
(°С)
Тd
(°С)
f(%) Тe
(°С)
Pmin
(гПа)
dP
(гПа)
Po
(мм)
O2
(г/м3)
Тmin Tmax R s Состояние
почвы
03 18.05.18 360 (С) 4-10{11}  20000 м  слаб. снег  10/10 300 м 
[Frnb|Ns]
-6 -9.4 77 -9  1018.9  1.3  761  314  -9.8    0.6  48  неравномерный
сухой снег
100% 
12 18.05.18 010 (С) 20000 м    8/6 600 м кучево-дожд., верхняя 
[Cb cap|Ci fib]
-2.9 -8 68 -5  1023.9  1.2  765  312           
18 18.05.18 010 (С) 20000 м    10/10 600 м 
[Sc]
-6.4 -8.7 84 -6  1024.3  0.2  765  316           
21 18.05.18 100 (В) 20000 м    10/10 300 м 
[St]
-7.7 -9.1 90 -7  1023.8  -0.5  764  318           
00 19.05.18 150 (ЮВ) 2000 м  дымка  10/10 300 м 
[St]
-8 -9.5 89 -8  1023.2  -0.6  764  318           
03 19.05.18 190 (Ю) 2000 м  дымка  10/10 300 м 
[St]
-6.9 -8.4 89 -8  1022.2  -1  763  316  -8.3      45  неравномерный
сухой снег
100% 
06 19.05.18 200 (Ю) 20000 м    10/0 верхняя 
[Ci sp]
-1.3 -7.2 64 -3  1020  -2.1  762  309           
09 19.05.18 180 (Ю) 20000 м    8/0 верхняя 
[Ci sp]
+2.8 -6.6 50 +1  1017.8  -2.1  760  304           
12 19.05.18 180 (Ю) н/о    н/о 
+4.9 -5.3 48 +4  1015.1  -2.6  758  301           
18 19.05.18 180 (Ю) 20000 м    10/10 300 м 
[St]
+3.9 -4 56 +2  1010.1  -2.3  754  300           
21 19.05.18 180 (Ю) 4{10}  20000 м    10/10 300 м 
[St]
+3.3 -3.5 61 +1  1006.8  -3.3  752  300           
03 20.05.18 180 (Ю) 10 км  слаб. дождь  10/10 600 м 
[Ns]
+2.4 +0.2 85 +1  1002  -1.9  748  299  +2.2    0.6  37  неравномерный
мокрый или
старый снег
100% 
06 20.05.18 190 (Ю) н/о    н/о 
+4 +0.4 77 +4  1000.8  -1.1  747  297           
09 20.05.18 210 (ЮЗ) 20000 м    10/0 средняя 
[As op]
+6.2 +0.8 68 +6  1000.6  -0.1  747  294           
12 20.05.18 010 (С) н/о    н/о 
+5.3 -0.7 65 +4  1002.3  749  296           
15 20.05.18 020 (С) 3{10}  20000 м    10/0 средняя 
[As op]
+1.1 -1.6 82 1005.2  2.8  751  301    +6.6  0.0     
03 21.05.18 360 (С) 3{10}  20000 м    10/0 средняя 
[As op]
-3.2 -6.1 80 -5  1014.5  2.1  758  310  -4.6      34  неравномерный
мокрый или
старый снег
100% 
06 21.05.18 350 (С) н/о    н/о 
+1.1 -6 59 1015.5  758  305           
09 21.05.18 290 (З) 20000 м    10/0 верхняя 
[Cs]
+4.3 -5.7 48 +3  1016.1  0.7  759  302           
12 21.05.18 290 (З) 20000 м    8/0 верхняя 
[Cs]
+4.7 -5.3 48 +4  1015.4  758  301           
15 21.05.18 220 (ЮЗ) 20000 м    8/3 600 м средняя, верхняя 
[Sc|Ac trans|Cs]
+2.8 -3.5 63 +2  1012.9  756  302           
18 21.05.18 240 (ЮЗ) 20000 м    10/0 средняя 
[As trans]
+2 -2.4 73 1009.3  -3.6  754  302           
21 21.05.18 220 (ЮЗ) 10 км  слаб. дождь  10/10 600 м 
[Frnb|Ns]
+1.4 -1.5 81 -1  1003.3  -6  749  300           
00 22.05.18 260 (З) 10 км  слаб. дождь  10/10 600 м 
[Frnb|Ns]
+2.5 +0.6 87 998.8  -4.4  746  298           
03 22.05.18 290 (З) 4-10{12}  20000 м  {дождь}  3/1 600 м верхняя 
[Cu hum|Ci sp]
+3.8 -1.7 67 +2  999.1  0.4  746  297  +1.4    33  неравномерный
мокрый или
старый снег
100% 
Время (UTC), дата Ветер
(°,м/с) 
Видим.   Явления Облачность Т
(°С)
Тd
(°С)
f(%) Тe
(°С)
Pmin
(гПа)
dP
(гПа)
Po
(мм)
O2
(г/м3)
Тmin Tmax R s Состояние
почвы

Для получения пояснительной информации подведите курсор к названию столбца.

ПОГОДА Янги-Юган - архив

Всё, что Вы хотите узнать о погоде Янги-Юган - удобно и подробно!

Выберите нужную дату (начиная с 1 января 2015* года) и нажмите кнопку "Найти".
Будут отображены архивные сводки погоды по пункту Янги-Юган, начиная с указанной даты.


Отображать данные в формате CSV (для использования в таблицах Excel)


Внимание! Наш архив погоды предназначен исключительно для личного некоммерческого использования в познавательных целях. Если Вам необходимы официальные справки о состоянии погоды (для производственных, юридических, коммерческих и т.п. целей), обращайтесь в органы Росгидромета.

*Примечание: данная дата относится к архиву по метеостанциям СССР (Россия, СНГ, Балтия).
Архив по метеостанциям Зарубежной Европы и Азии (кроме Китая) хранится 10 дней, по другим регионам земного шара (Китай, Африка, Америка, Австралия, Океания) - 1 день.

Янги-Юган - район местоположения метеостанции


Название, широта, долгота, высота метеостанции:
Янги-Юган 66.1°ш. 68.7°д. 40 м над ур. моря [Российская Федерация]

Дополнительная информация

В oтличие oт бoльшинства пoгoдных сайтoв мы публикуем пoдрoбную метеoинфoрмацию в детальнoм прoфессиoнальнoм фoрмате.

Характеристики температуры и влажнoсти вoздуха измеряются на высoте 2 м в тени вдали oт зданий и деревьев.
Скoрoсть ветра измеряется на высoте 10 м (на урoвне рoста челoвека скoрoсть ветра ниже в 1.5-2 раза). Если метеoстанция нахoдится в гoрoде или в лесу, тo скoрoсть ветра занижена на 2-4 м/с пo сравнению с oткрытым местoм. Скoрoсть ветра над акватoриями крупных рек и oзёр, а также на вершинах хoлмoв на 2-5 м/с выше, чем в oбычных услoвиях.
Атмoсфернoе давление в разных тoчках местнoсти мoжет значительнo oтличаться oт давления на метеoстанции, в зависимoсти oт услoвий рельефа (при пoдъёме на 10 м давление пoнижается примернo на 1 мм рт.ст.).